Погода Большое Нарымское

Погода Большое Нарымское : погода сейчас, прогноз погоды и архив. Всё, что Вы хотите узнать о погоде Большое Нарымское!

Поиск расширенной информации на нашем сайте:

Полезная информация:

Другие новости

Новости СМИ2

Главная страница сайта

Новости сайта

03.07.2017

Напоминаем, что на нашем специализированном сайте Метеоцентр.Азия вы можете получить высокодетализированные автоматические прогнозы погоды по пунктам России, СНГ и мира в авиационном формате (включающие направление и скорость ветра, видимость, явления погоды, количество и форму облачности, нижнюю и верхнюю границу облачности).

Рекомендуем:

Погода Большое Нарымское - сегодня

Время (UTC), дата Ветер
(°,м/с) 
Видим.   Явления Облачность Т
(°С)
Тd
(°С)
f(%) Тe
(°С)
Pmin
(гПа)
dP
(гПа)
Po
(мм)
O2
(г/м3)
Тmin Tmax R s Состояние
почвы
18 17.03.19 260 (З) н/о    ясно 
-8.2 -10.5 83 -10  1025.2  0.2  730  304    +0.4       
21 17.03.19 010 (С) н/о    ясно 
-14.2 -16.9 80 -16  1026.8  0.4  731  312           
00 18.03.19 010 (С) н/о    3/0 средняя, верхняя 
[Ac lent|Ci fib]
-14.6 -17.6 78 -15  1027.4  0.5  731  313           
03 18.03.19 120 (ЮВ) 20000 м    8/3 600 м средняя, верхняя 
[St|Ac lent|Ci fib]
-9 -13.4 70 -11  1027.8  1.5  732  306        25  равномерный
сухой снег
100% 
06 18.03.19 240 (ЮЗ) 20000 м    4/3 600 м верхняя 
[St|Ci fib]
-5 -13.3 52 -6  1027.6  0.5  733  302  -15         
09 18.03.19 250 (З) 20000 м    3/1 1500 м верхняя 
[Sc|Ci fib]
-3.5 -11.8 53 -5  1026.9  -0.4  732  300           
12 18.03.19 010 (С) 20000 м    1/0 верхняя 
[Ci fib]
-4.8 -11.9 58 -4  1027.6  0.5  733  302           
15 18.03.19 030 (СВ) н/о    ясно 
-8.7 -12 77 -10  1028.7  0.3  733  306    -1.8       
18 18.03.19 010 (С) н/о    ясно 
-13.5 -16.5 78 -16  1029.2  -0.5  732  312    -1.8       
21 18.03.19 тихо ()   н/о    ясно 
-14.2 -16.6 82 -14  1029.4  0.1  733  313           
00 19.03.19 тихо ()   н/о    ясно 
-17 -18.9 85 -17  1030.5  0.4  733  316           
03 19.03.19 тихо ()   20000 м    ясно 
-12.6 -16.3 74 -13  1030  0.4  733  311        25  равномерный
сухой снег
100% 
06 19.03.19 280 (З) 20000 м    ясно 
-6.2 -13 59 -6  1028.8  0.1  733  303  -17         
09 19.03.19 300 (СЗ) 20000 м    ясно 
-1.8 -10 53 -1  1027.4  -0.5  733  298           
12 19.03.19 340 (С) 20000 м    ясно 
-2.6 -11.3 51 -4  1027.6  0.1  733  299           
15 19.03.19 тихо ()   н/о    9/0 средняя, верхняя 
[Ac lent|Ci fib]
-8.8 -11.6 80 -9  1030.1  1.2  734  307    +0.2       
18 19.03.19 тихо ()   н/о    9/0 средняя, верхняя 
[Ac lent|Ci fib]
-7.8 -10.9 78 -8  1030.3  0.4  734  306    +0.2       
21 19.03.19 020 (С) н/о    9/0 средняя, верхняя 
[Ac lent|Ci sp]
-9 -11.4 83 -9  1030.7  0.1  734  307           
00 20.03.19 050 (СВ) н/о    4/0 средняя, верхняя 
[Ac lent|Ci fib]
-14 -16.1 84 -16  1032.7  0.9  735  313           
03 20.03.19 300 (СЗ) 20000 м    ясно 
-8.7 -12 77 -8  1032.3  0.7  735  307        25  равномерный
сухой снег
100% 
06 20.03.19 230 (ЮЗ) 20000 м    ясно 
-4.8 -10.5 64 -4  1031.2  -0.3  735  302  -14.2         
09 20.03.19 280 (З) 20000 м    ясно 
-2.3 -10.4 54 -3  1029.2  -1.5  734  299           
12 20.03.19 тихо ()   20000 м    ясно 
-2.6 -9 61 -3  1029.4  0.2  734  300           
15 20.03.19 250 (З) н/о    1/0 верхняя 
[Ci fib]
-6.8 -9.6 80 -6  1030.4  0.2  734  304    -1       
18 20.03.19 040 (СВ) н/о    ясно 
-9.6 -12.1 82 -9  1030.9  -0.1  734  308    -1       
Время (UTC), дата Ветер
(°,м/с) 
Видим.   Явления Облачность Т
(°С)
Тd
(°С)
f(%) Тe
(°С)
Pmin
(гПа)
dP
(гПа)
Po
(мм)
O2
(г/м3)
Тmin Tmax R s Состояние
почвы

Для получения пояснительной информации подведите курсор к названию столбца.

ПОГОДА Большое Нарымское - архив

Всё, что Вы хотите узнать о погоде Большое Нарымское - удобно и подробно!

Выберите нужную дату (начиная с 1 января 2018* года) и нажмите кнопку "Найти".
Будут отображены архивные сводки погоды по пункту Большое Нарымское, начиная с указанной даты.


Отображать данные в формате CSV (для использования в таблицах Excel)


Внимание! Наш архив погоды предназначен исключительно для личного некоммерческого использования в познавательных целях. Если Вам необходимы официальные справки о состоянии погоды (для производственных, юридических, коммерческих и т.п. целей), обращайтесь в органы Росгидромета.

*Примечание: данная дата относится к архиву по метеостанциям СССР (Россия, СНГ, Балтия).
Архив по метеостанциям Зарубежной Европы и Азии (кроме Китая) хранится 10 дней, по другим регионам земного шара (Китай, Африка, Америка, Австралия, Океания) - 1 день.

Большое Нарымское - район местоположения метеостанции


Название, широта, долгота, высота метеостанции:
Большое Нарымское 49.2°ш. 84.5°д. 401 м над ур. моря [Казахстан]

Дополнительная информация

В oтличие oт бoльшинства пoгoдных сайтoв мы публикуем пoдрoбную метеoинфoрмацию в детальнoм прoфессиoнальнoм фoрмате.

Характеристики температуры и влажнoсти вoздуха измеряются на высoте 2 м в тени вдали oт зданий и деревьев.
Скoрoсть ветра измеряется на высoте 10 м (на урoвне рoста челoвека скoрoсть ветра ниже в 1.5-2 раза). Если метеoстанция нахoдится в гoрoде или в лесу, тo скoрoсть ветра занижена на 2-4 м/с пo сравнению с oткрытым местoм. Скoрoсть ветра над акватoриями крупных рек и oзёр, а также на вершинах хoлмoв на 2-5 м/с выше, чем в oбычных услoвиях.
Атмoсфернoе давление в разных тoчках местнoсти мoжет значительнo oтличаться oт давления на метеoстанции, в зависимoсти oт услoвий рельефа (при пoдъёме на 10 м давление пoнижается примернo на 1 мм рт.ст.).